Location: Clermont
(50.2608°N, 4.3172°E)
Time: 00:00:46
(UTC+00:00)

Cosmos 1908 Rocket - Pass Details

Date: 13 August 2020
Orbit: 606 x 632 km, 82.5° (Epoch: 23 September)

Event Time Altitude Azimuth Distance (km) Brightness Sun altitude
Exits shadow 23:07:34 78° 324° (NW) 633 3.5 -24.9°
Drops below altitude 10° 23:11:45 10° 9° (N) 1,978 7.1 -25.0°
Sets 23:13:59 0° 10° (N) 2,885 8.2 -25.0°
